TimeEDT,TemperatureF,Dew PointF,Humidity,Sea Level PressureIn,VisibilityMPH,Wind Direction,Wind SpeedMPH,Gust SpeedMPH,PrecipitationIn,Events,Conditions,WindDirDegrees,DateUTC
12:15 AM,75.2,73.4,94,30.13,10.0,Calm,Calm,-,N/A,,Clear,0,2013-07-10 04:15:00
12:35 AM,75.4,73.6,94,30.12,10.0,Calm,Calm,-,N/A,,Scattered Clouds,0,2013-07-10 04:35:00
12:55 AM,75.0,73.4,95,30.13,10.0,SSE,3.5,-,N/A,,Scattered Clouds,160,2013-07-10 04:55:00
1:15 AM,75.0,73.4,95,30.13,10.0,Calm,Calm,-,N/A,,Overcast,0,2013-07-10 05:15:00
1:35 AM,75.2,73.4,94,30.13,10.0,Calm,Calm,-,N/A,,Overcast,0,2013-07-10 05:35:00
1:55 AM,75.2,73.9,96,30.12,10.0,Calm,Calm,-,N/A,,Overcast,0,2013-07-10 05:55:00
2:15 AM,75.2,73.6,95,30.12,10.0,Calm,Calm,-,N/A,,Mostly Cloudy,0,2013-07-10 06:15:00
2:35 AM,74.8,73.6,96,30.11,10.0,Calm,Calm,-,N/A,,Mostly Cloudy,0,2013-07-10 06:35:00
2:55 AM,74.3,73.6,98,30.10,10.0,Calm,Calm,-,N/A,,Scattered Clouds,0,2013-07-10 06:55:00
3:15 AM,74.3,73.4,97,30.10,10.0,Calm,Calm,-,N/A,,Clear,0,2013-07-10 07:15:00
3:55 AM,73.9,73.4,98,30.09,10.0,SSE,3.5,-,N/A,,Clear,150,2013-07-10 07:55:00
4:15 AM,73.9,73.4,98,30.09,10.0,South,3.5,-,N/A,,Mostly Cloudy,170,2013-07-10 08:15:00
4:35 AM,73.9,73.4,98,30.09,10.0,South,3.5,-,N/A,,Scattered Clouds,170,2013-07-10 08:35:00
4:55 AM,73.9,73.6,99,30.09,10.0,Calm,Calm,-,N/A,,Scattered Clouds,0,2013-07-10 08:55:00
5:15 AM,73.9,73.4,98,30.09,10.0,South,3.5,-,N/A,,Clear,180,2013-07-10 09:15:00
5:35 AM,73.9,73.4,98,30.09,10.0,South,3.5,-,N/A,,Scattered Clouds,180,2013-07-10 09:35:00
5:55 AM,73.9,73.4,98,30.09,10.0,Calm,Calm,-,N/A,,Overcast,0,2013-07-10 09:55:00
6:15 AM,73.9,73.4,98,30.10,10.0,Calm,Calm,-,N/A,,Overcast,0,2013-07-10 10:15:00
6:35 AM,73.6,73.0,98,30.10,10.0,Calm,Calm,-,N/A,,Scattered Clouds,0,2013-07-10 10:35:00
6:55 AM,73.6,73.4,99,30.10,10.0,Calm,Calm,-,N/A,Thunderstorm,Scattered Clouds,0,2013-07-10 10:55:00
7:15 AM,73.9,73.6,99,30.10,10.0,Calm,Calm,-,N/A,,Scattered Clouds,0,2013-07-10 11:15:00
7:35 AM,73.9,73.4,98,30.10,10.0,SSE,3.5,-,N/A,Thunderstorm,Clear,160,2013-07-10 11:35:00
7:55 AM,74.5,73.6,97,30.11,10.0,Calm,Calm,-,N/A,Thunderstorm,Scattered Clouds,0,2013-07-10 11:55:00
8:15 AM,75.2,73.8,95,30.11,10.0,SSE,4.6,-,N/A,,Mostly Cloudy,160,2013-07-10 12:15:00
8:35 AM,75.6,74.1,95,30.11,10.0,Calm,Calm,-,N/A,,Mostly Cloudy,0,2013-07-10 12:35:00
8:55 AM,77.0,74.3,91,30.11,10.0,South,5.8,-,N/A,,Scattered Clouds,190,2013-07-10 12:55:00
9:15 AM,78.3,74.5,88,30.11,10.0,South,5.8,-,N/A,,Scattered Clouds,180,2013-07-10 13:15:00
9:35 AM,79.7,69.4,71,30.11,10.0,SSW,9.2,-,N/A,,Mostly Cloudy,210,2013-07-10 13:35:00
9:55 AM,79.3,68.0,68,30.11,10.0,South,5.8,-,N/A,,Overcast,190,2013-07-10 13:55:00
10:15 AM,80.6,67.5,64,30.10,10.0,South,5.8,-,N/A,,Scattered Clouds,180,2013-07-10 14:15:00
10:35 AM,81.7,65.7,58,30.10,10.0,SSW,5.8,-,N/A,,Scattered Clouds,200,2013-07-10 14:35:00
10:55 AM,83.5,66.4,56,30.10,10.0,South,5.8,-,N/A,,Clear,190,2013-07-10 14:55:00
11:15 AM,84.0,67.1,57,30.10,10.0,South,4.6,-,N/A,,Scattered Clouds,180,2013-07-10 15:15:00
11:35 AM,84.7,67.6,56,30.10,10.0,South,5.8,-,N/A,,Scattered Clouds,190,2013-07-10 15:35:00
11:55 AM,86.2,67.8,54,30.10,10.0,SSE,8.1,-,N/A,Thunderstorm,Clear,160,2013-07-10 15:55:00
12:15 PM,85.1,68.2,57,30.10,10.0,South,5.8,-,N/A,,Scattered Clouds,190,2013-07-10 16:15:00
12:35 PM,84.2,68.2,58,30.10,10.0,SSW,3.5,-,N/A,Thunderstorm,Mostly Cloudy,200,2013-07-10 16:35:00
12:55 PM,79.3,69.1,71,30.10,10.0,NW,12.7,-,N/A,Thunderstorm,Overcast,310,2013-07-10 16:55:00
1:15 PM,76.5,72.7,88,30.10,5.0,WNW,5.8,-,N/A,Rain,Heavy Rain,300,2013-07-10 17:15:00
1:35 PM,75.0,74.3,98,30.10,5.0,NNW,9.2,-,N/A,Rain,Rain,330,2013-07-10 17:35:00
1:55 PM,75.4,74.8,98,30.09,10.0,WNW,9.2,-,N/A,Rain,Light Rain,300,2013-07-10 17:55:00
2:15 PM,75.6,74.5,96,30.07,10.0,West,6.9,-,N/A,,Scattered Clouds,270,2013-07-10 18:15:00
2:35 PM,75.9,74.3,95,30.06,10.0,NNW,6.9,-,N/A,,Scattered Clouds,330,2013-07-10 18:35:00
2:55 PM,76.3,74.5,94,30.06,10.0,NW,4.6,-,N/A,Rain,Light Rain,320,2013-07-10 18:55:00
3:15 PM,78.8,73.9,85,30.05,5.0,WNW,5.8,-,N/A,,Haze,290,2013-07-10 19:15:00
3:35 PM,81.3,71.2,71,30.04,10.0,WSW,4.6,-,N/A,,Clear,240,2013-07-10 19:35:00
3:55 PM,81.1,70.7,70,30.03,10.0,WSW,3.5,-,N/A,,Clear,240,2013-07-10 19:55:00
4:15 PM,82.8,69.1,63,30.02,10.0,West,3.5,-,N/A,,Clear,280,2013-07-10 20:15:00
4:35 PM,82.9,69.3,63,30.02,10.0,WNW,4.6,-,N/A,,Clear,300,2013-07-10 20:35:00
4:55 PM,81.9,69.1,65,30.01,10.0,NW,6.9,-,N/A,,Clear,310,2013-07-10 20:55:00
5:15 PM,80.8,69.6,69,30.01,10.0,WNW,5.8,-,N/A,,Clear,300,2013-07-10 21:15:00
5:35 PM,80.6,69.8,70,30.01,10.0,WNW,6.9,-,N/A,Thunderstorm,Clear,290,2013-07-10 21:35:00
5:55 PM,80.2,69.1,69,30.01,10.0,WNW,4.6,-,N/A,,Clear,290,2013-07-10 21:55:00
6:15 PM,79.9,69.1,69,30.00,10.0,Calm,Calm,-,N/A,,Clear,0,2013-07-10 22:15:00
6:35 PM,80.1,68.5,68,30.00,10.0,Calm,Calm,-,N/A,,Clear,0,2013-07-10 22:35:00
6:55 PM,80.2,68.5,67,30.00,10.0,Calm,Calm,-,N/A,,Clear,0,2013-07-10 22:55:00
7:15 PM,80.2,68.5,67,30.00,10.0,West,3.5,-,N/A,,Clear,260,2013-07-10 23:15:00
7:35 PM,79.7,69.1,70,30.00,10.0,West,3.5,-,N/A,,Clear,280,2013-07-10 23:35:00
7:55 PM,79.0,68.7,71,30.00,10.0,Calm,Calm,-,N/A,,Clear,0,2013-07-10 23:55:00
8:15 PM,79.0,68.9,71,30.00,10.0,Calm,Calm,-,N/A,,Clear,0,2013-07-11 00:15:00
8:35 PM,78.1,69.6,75,30.00,10.0,Calm,Calm,-,N/A,,Clear,0,2013-07-11 00:35:00
8:55 PM,77.2,72.1,84,30.00,10.0,Calm,Calm,-,N/A,,Clear,0,2013-07-11 00:55:00
9:15 PM,76.1,74.3,94,30.02,10.0,Calm,Calm,-,N/A,,Clear,0,2013-07-11 01:15:00
9:35 PM,76.1,74.7,95,30.01,10.0,Calm,Calm,-,N/A,,Clear,0,2013-07-11 01:35:00
9:55 PM,76.1,75.2,97,30.02,10.0,Calm,Calm,-,N/A,,Clear,0,2013-07-11 01:55:00
10:15 PM,76.5,75.2,96,30.02,10.0,SSE,3.5,-,N/A,,Clear,160,2013-07-11 02:15:00
10:35 PM,76.1,74.5,95,30.03,10.0,Calm,Calm,-,N/A,,Clear,0,2013-07-11 02:35:00
10:55 PM,76.1,74.3,94,30.02,10.0,Calm,Calm,-,N/A,,Clear,0,2013-07-11 02:55:00
11:15 PM,75.6,74.3,96,30.01,10.0,Calm,Calm,-,N/A,,Clear,0,2013-07-11 03:15:00
11:35 PM,75.2,74.1,96,30.01,10.0,Calm,Calm,-,N/A,,Clear,0,2013-07-11 03:35:00
11:55 PM,74.5,74.3,99,30.01,10.0,Calm,Calm,-,N/A,,Clear,0,2013-07-11 03:55:00